Tracking 32938 objects as of 13-Jan-2026
HD Live streaming from Space Station
objects crossing your sky now

SL-6 R/B(2)

Track SL-6 R/B(2) now!


NORAD ID: 14796
Int'l Code: 1984-024D
Perigee: 6,814.9 km
Apogee: 33,158.1 km
Inclination: 71.5 °
Period: 709.8 minutes
Semi major axis: 26357 km
RCS: 6.8684 m2 (large)
Launch date: March 6, 1984
Source: Commonwealth of Independent States (former USSR) (CIS)
Launch site: PLESETSK MISSILE AND SPACE COMPLEX (PKMTR)

Note: This is a ROCKET BODY
Your satellite tracking list
Your tracking list is empty




NASA's NSSDC Master Catalog

Two Line Element Set (TLE):
1 14796U 84024D   26012.23545860 -.00000021  00000-0  00000-0 0  9993
2 14796  71.5497  91.2068 4997290 335.8875  11.1628  2.02883890309941
Source of the keplerian elements: AFSPC